International Virtual Aviation Organisation

Eastern Europe and Northern Asia MCD

 

Карточка аэропорта UHMA

Внимание!
Информация на этой странице в стадии наполнения.
Если вы не увидели какой-то информации, или заметили неточность - пожалуйста сообщите нам!
Спасибо!
Команда RU-STAFF
Название аэропортаУгольный
Название аэропорта (англ.)Ugolny
Превышение194 ft. (59.1 m.)
Координаты64°44.1', 177°44.28'
Высота перехода1600m
Эшелон переходаQFE>=755mm:FL070; QFE<755=>728:FL080; QFE<728:FL090
Коды ответчика6501-6537
Зона ОрВДМагадан РПИ (UHMM)
Данные METARUHMA 110300Z 02008MPS 9000 BLSN NSC M13/M19 Q1014 R01/////// NOSIG RMK TDZ R01/02008G12MPS END R01/03012G17MPS QFE757/1010
Проноз погоды (TAF)UHMA 110143Z 1103/1203 01008G15MPS 5000 BLSN SCT020 TEMPO 1103/1203 06014G19MPS 1500 -SN BLSN SCT003 BKN015
NOTAMshow/hide NOTAM
AWOS   TABLE

Информация о ВПП


Диспетчерские позиции

Позывной Наименование органа УВД Частота
UHMA_APPАнадырь-Подход124.0
UHMA_TWRАнадырь-Старт124.0



Спутниковое изображение